| time (UTC) | temp C | wind direction | speed KPH | gust KPH | rain 1hr cm | rain 24hr cm | rain mn cm | humidity % | barometer mb |
| 20260506044436 | 16 | 231 | 6.4 | 0.0 | 0.00 | 0.00 | 0.00 | 78 | 1009.5 |
| 20260506042936 | 16 | 221 | 3.2 | 0.0 | 0.00 | 0.00 | 0.00 | 77 | 1009.5 |
| 20260506041453 | 16 | 168 | 3.2 | 0.0 | 0.00 | 0.00 | 0.00 | 77 | 1009.5 |
| 20260506035936 | 16 | 213 | 3.2 | 0.0 | 0.00 | 0.00 | 0.00 | 75 | 1009.4 |
| 20260506034436 | 17 | 164 | 3.2 | 0.0 | 0.00 | 0.00 | 0.00 | 74 | 1009.4 |
| 20260506032936 | 17 | 189 | 6.4 | 0.0 | 0.00 | 0.00 | 0.00 | 73 | 1009.4 |
| 20260506031436 | 17 | 196 | 4.8 | 0.0 | 0.00 | 0.00 | 0.00 | 72 | 1009.4 |
| 20260506025936 | 17 | 192 | 6.4 | 0.0 | 0.00 | 0.00 | 0.00 | 71 | 1009.2 |
| 20260506024453 | 17 | 196 | 3.2 | 0.0 | 0.00 | 0.00 | 0.00 | 70 | 1009.2 |
| 20260506022936 | 18 | 208 | 8.0 | 0.0 | 0.00 | 0.00 | 0.00 | 68 | 1009.2 |
| 20260506021453 | 18 | 204 | 4.8 | 0.0 | 0.00 | 0.00 | 0.00 | 67 | 1009.2 |
| 20260506015953 | 18 | 175 | 12.9 | 0.0 | 0.00 | 0.00 | 0.00 | 66 | 1008.5 |
| 20260506014436 | 18 | 214 | 11.3 | 0.0 | 0.00 | 0.00 | 0.00 | 64 | 1008.5 |
| 20260506012936 | 19 | 196 | 9.7 | 0.0 | 0.00 | 0.00 | 0.00 | 62 | 1008.5 |
| 20260506011453 | 19 | 223 | 12.9 | 0.0 | 0.00 | 0.00 | 0.00 | 62 | 1008.5 |
| 20260506005936 | 20 | 198 | 12.9 | 0.0 | 0.00 | 0.00 | 0.00 | 60 | 1007.9 |
| 20260506004436 | 20 | 168 | 8.0 | 0.0 | 0.00 | 0.00 | 0.00 | 59 | 1007.9 |
| 20260506002936 | 21 | 190 | 9.7 | 0.0 | 0.00 | 0.00 | 0.00 | 57 | 1007.9 |
| 20260506001453 | 21 | 199 | 20.9 | 0.0 | 0.00 | 0.00 | 0.00 | 56 | 1007.9 |
| 20260505235936 | 22 | 199 | 11.3 | 0.0 | 0.00 | 0.00 | 0.00 | 54 | 1007.9 |
| 20260505234436 | 22 | 184 | 12.9 | 0.0 | 0.00 | 0.00 | 0.00 | 53 | 1007.9 |
| 20260505232936 | 22 | 215 | 20.9 | 0.0 | 0.00 | 0.00 | 0.00 | 53 | 1007.9 |
| 20260505231436 | 23 | 179 | 12.9 | 0.0 | 0.00 | 0.00 | 0.00 | 52 | 1007.9 |
| 20260505225936 | 23 | 158 | 32.2 | 0.0 | 0.00 | 0.00 | 0.00 | 50 | 1007.5 |
| 20260505224453 | 24 | 212 | 27.4 | 0.0 | 0.00 | 0.00 | 0.00 | 49 | 1007.5 |
| 20260505222936 | 25 | 202 | 30.6 | 0.0 | 0.00 | 0.00 | 0.00 | 47 | 1007.5 |
| 20260505221436 | 25 | 165 | 14.5 | 0.0 | 0.00 | 0.00 | 0.00 | 45 | 1007.5 |
| 20260505215936 | 25 | 205 | 27.4 | 0.0 | 0.00 | 0.00 | 0.00 | 44 | 1007.7 |
| 20260505214436 | 26 | 169 | 20.9 | 0.0 | 0.00 | 0.00 | 0.00 | 41 | 1007.7 |
| 20260505212953 | 26 | 210 | 17.7 | 0.0 | 0.00 | 0.00 | 0.00 | 40 | 1007.7 |
| 20260505211436 | 26 | 212 | 16.1 | 0.0 | 0.00 | 0.00 | 0.00 | 37 | 1007.7 |
| 20260505205936 | 27 | 152 | 4.8 | 0.0 | 0.00 | 0.00 | 0.00 | 34 | 1008.0 |
| 20260505204453 | 26 | 227 | 3.2 | 0.0 | 0.00 | 0.00 | 0.00 | 30 | 1008.0 |
| 20260505202936 | 26 | 224 | 29.0 | 0.0 | 0.00 | 0.00 | 0.00 | 31 | 1008.0 |
| 20260505201436 | 26 | 209 | 11.3 | 0.0 | 0.00 | 0.00 | 0.00 | 31 | 1008.0 |
| 20260505195936 | 26 | 224 | 24.1 | 0.0 | 0.00 | 0.00 | 0.00 | 30 | 1009.1 |
| 20260505194436 | 27 | 225 | 27.4 | 0.0 | 0.00 | 0.00 | 0.00 | 33 | 1009.1 |
| 20260505192936 | 26 | 142 | 8.0 | 0.0 | 0.00 | 0.00 | 0.00 | 32 | 1009.1 |
| 20260505191436 | 27 | 208 | 11.3 | 0.0 | 0.00 | 0.00 | 0.00 | 31 | 1009.1 |
| 20260505185953 | 26 | 248 | 11.3 | 0.0 | 0.00 | 0.00 | 0.00 | 31 | 1009.7 |
| 20260505184436 | 26 | 204 | 25.7 | 0.0 | 0.00 | 0.00 | 0.00 | 31 | 1009.7 |
| 20260505182953 | 26 | 246 | 19.3 | 0.0 | 0.00 | 0.00 | 0.00 | 31 | 1009.7 |
| 20260505181436 | 26 | 212 | 11.3 | 0.0 | 0.00 | 0.00 | 0.00 | 35 | 1009.7 |
| 20260505175936 | 26 | 204 | 30.6 | 0.0 | 0.00 | 0.00 | 0.00 | 35 | 1009.9 |
| 20260505174436 | 26 | 210 | 22.5 | 0.0 | 0.00 | 0.00 | 0.00 | 37 | 1009.9 |
| 20260505172936 | 25 | 233 | 16.1 | 0.0 | 0.00 | 0.00 | 0.00 | 37 | 1009.9 |
| 20260505171436 | 25 | 218 | 24.1 | 0.0 | 0.00 | 0.00 | 0.00 | 38 | 1009.9 |
| 20260505165936 | 25 | 167 | 30.6 | 0.0 | 0.00 | 0.00 | 0.00 | 39 | 1010.9 |
| 20260505164436 | 24 | 242 | 16.1 | 0.0 | 0.00 | 0.00 | 0.00 | 39 | 1010.9 |
| 20260505163010 | 24 | 184 | 14.5 | 0.0 | 0.00 | 0.00 | 0.00 | 42 | 1010.9 |
| 20260505161510 | 24 | 302 | 1.6 | 0.0 | 0.00 | 0.00 | 0.00 | 47 | 1010.9 |
| 20260505152936 | 22 | 234 | 24.1 | 0.0 | 0.00 | 0.00 | 0.00 | 54 | 1010.9 |
| 20260505151454 | 22 | 195 | 6.4 | 0.0 | 0.00 | 0.00 | 0.00 | 56 | 1010.9 |
| 20260505124436 | 15 | 174 | 8.0 | 0.0 | 0.00 | 0.00 | 0.00 | 85 | 1010.8 |
| 20260505122936 | 15 | 143 | 3.2 | 0.0 | 0.00 | 0.00 | 0.00 | 87 | 1010.8 |
| 20260505121436 | 14 | 131 | 3.2 | 0.0 | 0.00 | 0.00 | 0.00 | 89 | 1010.8 |
| 20260505115953 | 12 | 20 | 0.0 | 0.0 | 0.00 | 0.00 | 0.00 | 90 | 1010.3 |
| 20260505114436 | 11 | 76 | 0.0 | 0.0 | 0.00 | 0.00 | 0.00 | 90 | 1010.3 |
| 20260505112936 | 10 | 9 | 1.6 | 0.0 | 0.00 | 0.00 | 0.00 | 90 | 1010.3 |
| 20260505111436 | 10 | 8 | 0.0 | 0.0 | 0.00 | 0.00 | 0.00 | 90 | 1010.3 |
| 20260505101436 | 10 | 8 | 0.0 | 0.0 | 0.00 | 0.00 | 0.00 | 89 | 1010.0 |
| 20260505095936 | 10 | 8 | 0.0 | 0.0 | 0.00 | 0.00 | 0.00 | 88 | 1009.7 |
| 20260505094436 | 10 | 8 | 0.0 | 0.0 | 0.00 | 0.00 | 0.00 | 88 | 1009.7 |
| 20260505092936 | 10 | 8 | 0.0 | 0.0 | 0.00 | 0.00 | 0.00 | 88 | 1009.7 |
| 20260505091436 | 10 | 8 | 0.0 | 0.0 | 0.00 | 0.00 | 0.00 | 88 | 1009.7 |
| 20260505085953 | 10 | 8 | 0.0 | 0.0 | 0.00 | 0.00 | 0.00 | 87 | 1009.3 |
| 20260505084436 | 10 | 8 | 0.0 | 0.0 | 0.00 | 0.00 | 0.00 | 86 | 1009.3 |
| 20260505083010 | 10 | 8 | 0.0 | 0.0 | 0.00 | 0.00 | 0.00 | 86 | 1009.3 |
| 20260505081436 | 10 | 8 | 0.0 | 0.0 | 0.00 | 0.00 | 0.00 | 86 | 1009.3 |
| 20260505075936 | 11 | 144 | 0.0 | 0.0 | 0.00 | 0.00 | 0.00 | 85 | 1009.2 |
| 20260505074436 | 11 | 290 | 0.0 | 0.0 | 0.00 | 0.00 | 0.00 | 83 | 1009.2 |
| 20260505072937 | 11 | 290 | 0.0 | 0.0 | 0.00 | 0.00 | 0.00 | 83 | 1009.2 |
| 20260505071436 | 12 | 290 | 0.0 | 0.0 | 0.00 | 0.00 | 0.00 | 81 | 1009.2 |
| 20260505065936 | 12 | 290 | 0.0 | 0.0 | 0.00 | 0.00 | 0.00 | 79 | 1009.4 |
| 20260505064436 | 13 | 290 | 0.0 | 0.0 | 0.00 | 0.00 | 0.00 | 77 | 1009.4 |
| 20260505062936 | 13 | 255 | 0.0 | 0.0 | 0.00 | 0.00 | 0.00 | 76 | 1009.4 |
| 20260505061436 | 14 | 242 | 8.0 | 0.0 | 0.00 | 0.00 | 0.00 | 75 | 1009.4 |
| 20260505055936 | 14 | 209 | 6.4 | 0.0 | 0.00 | 0.00 | 0.03 | 74 | 1010.0 |
| 20260505054436 | 14 | 197 | 9.7 | 0.0 | 0.00 | 0.00 | 0.03 | 74 | 1010.0 |
| 20260505052936 | 13 | 225 | 6.4 | 0.0 | 0.00 | 0.00 | 0.03 | 75 | 1010.0 |
| 20260505051436 | 12 | 231 | 3.2 | 0.0 | 0.00 | 0.00 | 0.03 | 77 | 1010.0 |